Time,TemperatureF,DewpointF,PressureIn,WindDirection,WindDirectionDegrees,WindSpeedMPH,WindSpeedGustMPH,Humidity,HourlyPrecipIn,Conditions,Clouds,dailyrainin,SoftwareType,DateUTC
2013-07-21 00:01:00,51.0,51.0,30.06,WSW,247,4.0,7.0,100,0.00,,,0.00,Rainwise IP-100,2013-07-21 07:01:00,
2013-07-21 00:06:00,51.0,51.0,30.06,SSW,202,8.0,9.0,100,0.00,,,0.00,Rainwise IP-100,2013-07-21 07:06:00,
2013-07-21 00:11:00,51.0,51.0,30.05,WSW,247,9.0,9.0,100,0.00,,,0.00,Rainwise IP-100,2013-07-21 07:11:00,
2013-07-21 00:16:00,51.0,51.0,30.05,SSW,202,0.0,7.0,100,0.00,,,0.00,Rainwise IP-100,2013-07-21 07:16:00,
2013-07-21 00:21:00,51.0,51.0,30.05,SW,225,0.0,8.0,100,0.00,,,0.00,Rainwise IP-100,2013-07-21 07:21:00,
2013-07-21 00:26:00,51.0,51.0,30.05,WSW,247,0.0,6.0,100,0.00,,,0.00,Rainwise IP-100,2013-07-21 07:26:00,
2013-07-21 00:31:00,51.1,51.0,30.05,South,180,9.0,9.0,100,0.00,,,0.00,Rainwise IP-100,2013-07-21 07:31:00,
2013-07-21 00:36:00,51.1,51.0,30.04,WSW,247,4.0,7.0,100,0.00,,,0.00,Rainwise IP-100,2013-07-21 07:36:00,
2013-07-21 00:41:00,51.1,51.0,30.05,SW,225,0.0,7.0,100,0.00,,,0.00,Rainwise IP-100,2013-07-21 07:41:00,
2013-07-21 00:46:00,51.1,51.0,30.05,SW,225,0.0,0.0,100,0.00,,,0.00,Rainwise IP-100,2013-07-21 07:46:00,
2013-07-21 00:51:00,51.1,51.0,30.05,SW,225,0.0,9.0,100,0.00,,,0.00,Rainwise IP-100,2013-07-21 07:51:00,
2013-07-21 00:56:00,51.1,51.0,30.05,SW,225,0.0,8.0,100,0.00,,,0.00,Rainwise IP-100,2013-07-21 07:56:00,
2013-07-21 01:01:00,51.1,51.0,30.05,SW,225,7.0,8.0,100,0.00,,,0.00,Rainwise IP-100,2013-07-21 08:01:00,
2013-07-21 01:06:00,51.0,51.0,30.04,SW,225,0.0,8.0,100,0.00,,,0.00,Rainwise IP-100,2013-07-21 08:06:00,
2013-07-21 01:11:00,51.0,51.0,30.05,SSW,202,9.0,9.0,100,0.00,,,0.00,Rainwise IP-100,2013-07-21 08:11:00,
2013-07-21 01:16:00,51.0,51.0,30.05,SSW,202,8.0,8.0,100,0.00,,,0.00,Rainwise IP-100,2013-07-21 08:16:00,
2013-07-21 01:21:00,51.1,51.0,30.05,South,180,6.0,6.0,100,0.00,,,0.00,Rainwise IP-100,2013-07-21 08:21:00,
2013-07-21 01:26:00,51.1,51.0,30.05,SSW,202,5.0,5.0,100,0.00,,,0.00,Rainwise IP-100,2013-07-21 08:26:00,
2013-07-21 01:31:00,51.1,51.0,30.05,SW,225,9.0,9.0,100,0.00,,,0.00,Rainwise IP-100,2013-07-21 08:31:00,
2013-07-21 01:36:00,51.2,51.0,30.04,NNW,337,4.0,5.0,100,0.00,,,0.00,Rainwise IP-100,2013-07-21 08:36:00,
2013-07-21 01:41:00,51.3,51.0,30.05,WSW,247,5.0,5.0,100,0.00,,,0.00,Rainwise IP-100,2013-07-21 08:41:00,
2013-07-21 01:46:00,51.3,51.0,30.04,SW,225,0.0,6.0,100,0.00,,,0.00,Rainwise IP-100,2013-07-21 08:46:00,
2013-07-21 01:51:00,51.3,51.0,30.04,SSW,202,4.0,4.0,100,0.00,,,0.00,Rainwise IP-100,2013-07-21 08:51:00,
2013-07-21 01:56:00,51.3,51.0,30.04,NNE,22,3.0,4.0,100,0.00,,,0.00,Rainwise IP-100,2013-07-21 08:56:00,
2013-07-21 02:01:00,51.3,51.0,30.04,West,270,4.0,4.0,100,0.00,,,0.00,Rainwise IP-100,2013-07-21 09:01:00,
2013-07-21 02:06:00,51.3,51.0,30.04,SSW,202,7.0,7.0,100,0.00,,,0.00,Rainwise IP-100,2013-07-21 09:06:00,
2013-07-21 02:11:00,51.3,51.0,30.04,SW,225,9.0,9.0,100,0.00,,,0.00,Rainwise IP-100,2013-07-21 09:11:00,
2013-07-21 02:16:00,51.3,51.0,30.04,South,180,3.0,4.0,100,0.00,,,0.00,Rainwise IP-100,2013-07-21 09:16:00,
2013-07-21 02:21:00,51.3,51.0,30.04,WSW,247,7.0,7.0,100,0.00,,,0.00,Rainwise IP-100,2013-07-21 09:21:00,
2013-07-21 02:26:00,51.4,51.0,30.04,SW,225,8.0,8.0,100,0.00,,,0.00,Rainwise IP-100,2013-07-21 09:26:00,
2013-07-21 02:31:00,51.4,51.0,30.04,SW,225,0.0,4.0,100,0.00,,,0.00,Rainwise IP-100,2013-07-21 09:31:00,
2013-07-21 02:36:00,51.3,51.0,30.04,SSE,157,5.0,5.0,100,0.00,,,0.00,Rainwise IP-100,2013-07-21 09:36:00,
2013-07-21 02:41:00,51.2,51.0,30.04,SE,135,7.0,7.0,100,0.00,,,0.00,Rainwise IP-100,2013-07-21 09:41:00,
2013-07-21 02:46:00,51.2,51.0,30.04,SW,225,0.0,3.0,100,0.00,,,0.00,Rainwise IP-100,2013-07-21 09:46:00,
2013-07-21 02:51:00,51.3,51.0,30.04,SW,225,4.0,4.0,100,0.00,,,0.00,Rainwise IP-100,2013-07-21 09:51:00,
2013-07-21 02:53:00,51.3,51.0,30.04,SW,225,0.0,3.0,100,0.00,,,0.00,Rainwise IP-100,2013-07-21 09:53:00,
2013-07-21 02:58:00,51.3,51.0,30.03,SSW,202,9.0,9.0,100,0.00,,,0.00,Rainwise IP-100,2013-07-21 09:58:00,
2013-07-21 03:03:00,51.2,51.0,30.03,SW,225,4.0,4.0,100,0.00,,,0.00,Rainwise IP-100,2013-07-21 10:03:00,
2013-07-21 03:08:00,51.2,51.0,30.03,WSW,247,7.0,7.0,100,0.00,,,0.00,Rainwise IP-100,2013-07-21 10:08:00,
2013-07-21 03:13:00,51.2,51.0,30.03,WSW,247,4.0,4.0,100,0.00,,,0.00,Rainwise IP-100,2013-07-21 10:13:00,
2013-07-21 03:18:00,51.2,51.0,30.03,SSW,202,3.0,3.0,100,0.00,,,0.00,Rainwise IP-100,2013-07-21 10:18:00,
2013-07-21 03:23:00,51.2,51.0,30.03,WSW,247,8.0,8.0,100,0.00,,,0.00,Rainwise IP-100,2013-07-21 10:23:00,
2013-07-21 03:28:00,51.2,51.0,30.03,SW,225,8.0,8.0,100,0.00,,,0.00,Rainwise IP-100,2013-07-21 10:28:00,
2013-07-21 03:33:00,51.2,51.0,30.03,SW,225,5.0,5.0,100,0.00,,,0.00,Rainwise IP-100,2013-07-21 10:33:00,
2013-07-21 03:38:00,51.2,51.0,30.03,SSW,202,3.0,4.0,100,0.00,,,0.00,Rainwise IP-100,2013-07-21 10:38:00,
2013-07-21 03:43:00,51.2,51.0,30.03,WSW,247,9.0,9.0,100,0.00,,,0.00,Rainwise IP-100,2013-07-21 10:43:00,
2013-07-21 03:48:00,51.2,51.0,30.03,SSW,202,8.0,8.0,100,0.00,,,0.00,Rainwise IP-100,2013-07-21 10:48:00,
2013-07-21 03:53:00,51.2,51.0,30.03,SW,225,0.0,5.0,100,0.00,,,0.00,Rainwise IP-100,2013-07-21 10:53:00,
2013-07-21 03:58:00,51.2,51.0,30.03,SSE,157,1.0,4.0,100,0.00,,,0.00,Rainwise IP-100,2013-07-21 10:58:00,
2013-07-21 04:03:00,51.2,51.0,30.02,SW,225,0.0,4.0,100,0.00,,,0.00,Rainwise IP-100,2013-07-21 11:03:00,
2013-07-21 04:08:00,51.1,51.0,30.03,SW,225,8.0,8.0,100,0.00,,,0.00,Rainwise IP-100,2013-07-21 11:08:00,
2013-07-21 04:13:00,51.1,51.0,30.03,SW,225,7.0,7.0,100,0.00,,,0.00,Rainwise IP-100,2013-07-21 11:13:00,
2013-07-21 04:18:00,51.1,51.0,30.03,SW,225,4.0,4.0,100,0.00,,,0.00,Rainwise IP-100,2013-07-21 11:18:00,
2013-07-21 04:23:00,51.0,51.0,30.03,SSW,202,3.0,3.0,100,0.00,,,0.00,Rainwise IP-100,2013-07-21 11:23:00,
2013-07-21 04:28:00,51.0,51.0,30.02,SSW,202,7.0,7.0,100,0.00,,,0.00,Rainwise IP-100,2013-07-21 11:28:00,
2013-07-21 04:33:00,51.0,51.0,30.03,SSE,157,8.0,8.0,100,0.00,,,0.00,Rainwise IP-100,2013-07-21 11:33:00,
2013-07-21 04:38:00,51.0,51.0,30.02,WSW,247,8.0,8.0,100,0.00,,,0.00,Rainwise IP-100,2013-07-21 11:38:00,
2013-07-21 04:43:00,51.0,51.0,30.02,SSW,202,9.0,9.0,100,0.00,,,0.00,Rainwise IP-100,2013-07-21 11:43:00,
2013-07-21 04:48:00,51.0,51.0,30.03,SSW,202,3.0,5.0,100,0.00,,,0.00,Rainwise IP-100,2013-07-21 11:48:00,
2013-07-21 04:53:00,51.0,51.0,30.03,SW,225,0.0,5.0,100,0.00,,,0.00,Rainwise IP-100,2013-07-21 11:53:00,
2013-07-21 04:58:00,50.9,51.0,30.02,SSW,202,1.0,5.0,100,0.00,,,0.00,Rainwise IP-100,2013-07-21 11:58:00,
2013-07-21 05:03:00,50.9,51.0,30.02,SSW,202,3.0,5.0,100,0.00,,,0.00,Rainwise IP-100,2013-07-21 12:03:00,
2013-07-21 05:08:00,50.9,51.0,30.03,SW,225,0.0,5.0,100,0.00,,,0.00,Rainwise IP-100,2013-07-21 12:08:00,
2013-07-21 05:13:00,50.9,51.0,30.03,SW,225,0.0,4.0,100,0.00,,,0.00,Rainwise IP-100,2013-07-21 12:13:00,
2013-07-21 05:18:00,50.9,51.0,30.03,WNW,292,4.0,4.0,100,0.00,,,0.00,Rainwise IP-100,2013-07-21 12:18:00,
2013-07-21 05:23:00,50.9,51.0,30.03,SSW,202,4.0,4.0,100,0.00,,,0.00,Rainwise IP-100,2013-07-21 12:23:00,
2013-07-21 05:28:00,50.9,51.0,30.03,South,180,5.0,5.0,100,0.00,,,0.00,Rainwise IP-100,2013-07-21 12:28:00,
2013-07-21 05:33:00,50.9,51.0,30.03,SW,225,8.0,8.0,100,0.00,,,0.00,Rainwise IP-100,2013-07-21 12:33:00,
2013-07-21 05:38:00,51.0,51.0,30.03,SW,225,6.0,6.0,100,0.00,,,0.00,Rainwise IP-100,2013-07-21 12:38:00,
2013-07-21 05:43:00,50.9,51.0,30.04,SW,225,9.0,9.0,100,0.00,,,0.00,Rainwise IP-100,2013-07-21 12:43:00,
2013-07-21 05:48:00,50.9,51.0,30.03,WSW,247,7.0,7.0,100,0.00,,,0.00,Rainwise IP-100,2013-07-21 12:48:00,
2013-07-21 05:53:00,50.9,51.0,30.04,SW,225,7.0,7.0,100,0.00,,,0.00,Rainwise IP-100,2013-07-21 12:53:00,
2013-07-21 05:58:00,51.0,51.0,30.04,WSW,247,2.0,3.0,100,0.00,,,0.00,Rainwise IP-100,2013-07-21 12:58:00,
2013-07-21 06:03:00,51.1,51.0,30.04,WSW,247,4.0,4.0,100,0.00,,,0.00,Rainwise IP-100,2013-07-21 13:03:00,
2013-07-21 06:08:00,51.2,51.0,30.04,SW,225,8.0,8.0,100,0.00,,,0.00,Rainwise IP-100,2013-07-21 13:08:00,
2013-07-21 06:13:00,51.2,51.0,30.04,WSW,247,6.0,6.0,100,0.00,,,0.00,Rainwise IP-100,2013-07-21 13:13:00,
2013-07-21 06:18:00,51.1,51.0,30.04,SW,225,6.0,6.0,100,0.00,,,0.00,Rainwise IP-100,2013-07-21 13:18:00,
2013-07-21 06:23:00,51.1,51.0,30.04,SW,225,2.0,3.0,100,0.00,,,0.00,Rainwise IP-100,2013-07-21 13:23:00,
2013-07-21 06:28:00,51.2,51.0,30.04,West,270,4.0,4.0,100,0.00,,,0.00,Rainwise IP-100,2013-07-21 13:28:00,
2013-07-21 06:33:00,51.1,51.0,30.04,WSW,247,4.0,5.0,100,0.00,,,0.00,Rainwise IP-100,2013-07-21 13:33:00,
2013-07-21 06:38:00,51.1,51.0,30.04,WSW,247,0.0,5.0,100,0.00,,,0.00,Rainwise IP-100,2013-07-21 13:38:00,
2013-07-21 06:43:00,51.1,51.0,30.04,SW,225,0.0,7.0,100,0.00,,,0.00,Rainwise IP-100,2013-07-21 13:43:00,
2013-07-21 06:48:00,51.1,51.0,30.05,SW,225,0.0,6.0,100,0.00,,,0.00,Rainwise IP-100,2013-07-21 13:48:00,
2013-07-21 06:53:00,51.2,51.0,30.05,SSW,202,4.0,7.0,100,0.00,,,0.00,Rainwise IP-100,2013-07-21 13:53:00,
2013-07-21 06:58:00,51.1,51.0,30.05,WSW,247,4.0,4.0,100,0.00,,,0.00,Rainwise IP-100,2013-07-21 13:58:00,
2013-07-21 07:03:00,51.1,51.0,30.05,SW,225,6.0,6.0,100,0.00,,,0.00,Rainwise IP-100,2013-07-21 14:03:00,
2013-07-21 07:08:00,51.1,51.0,30.05,SSW,202,9.0,9.0,100,0.00,,,0.00,Rainwise IP-100,2013-07-21 14:08:00,
2013-07-21 07:13:00,51.2,51.0,30.05,SW,225,6.0,6.0,100,0.00,,,0.00,Rainwise IP-100,2013-07-21 14:13:00,
2013-07-21 07:18:00,51.3,51.0,30.05,SW,225,6.0,0.0,100,0.00,,,0.00,Rainwise IP-100,2013-07-21 14:18:00,
2013-07-21 07:23:00,51.3,51.0,30.06,WSW,247,8.0,8.0,100,0.00,,,0.00,Rainwise IP-100,2013-07-21 14:23:00,
2013-07-21 07:28:00,51.2,51.0,30.06,SW,225,0.0,4.0,100,0.00,,,0.00,Rainwise IP-100,2013-07-21 14:28:00,
2013-07-21 07:33:00,51.1,51.0,30.05,SW,225,9.0,9.0,100,0.00,,,0.00,Rainwise IP-100,2013-07-21 14:33:00,
2013-07-21 07:38:00,51.2,51.0,30.06,SW,225,3.0,3.0,100,0.00,,,0.00,Rainwise IP-100,2013-07-21 14:38:00,
2013-07-21 07:43:00,51.3,51.0,30.06,SW,225,6.0,6.0,100,0.00,,,0.00,Rainwise IP-100,2013-07-21 14:43:00,
2013-07-21 07:48:00,51.4,51.0,30.07,WSW,247,5.0,5.0,100,0.00,,,0.00,Rainwise IP-100,2013-07-21 14:48:00,
2013-07-21 07:53:00,51.4,51.0,30.06,SSW,202,8.0,8.0,100,0.00,,,0.00,Rainwise IP-100,2013-07-21 14:53:00,
2013-07-21 07:58:00,51.4,51.0,30.07,WSW,247,7.0,7.0,100,0.00,,,0.00,Rainwise IP-100,2013-07-21 14:58:00,
2013-07-21 08:03:00,51.5,52.0,30.07,SW,225,9.0,9.0,100,0.00,,,0.00,Rainwise IP-100,2013-07-21 15:03:00,
2013-07-21 08:08:00,51.5,52.0,30.07,WSW,247,4.0,4.0,100,0.00,,,0.00,Rainwise IP-100,2013-07-21 15:08:00,
2013-07-21 08:13:00,51.5,52.0,30.07,South,180,4.0,4.0,100,0.00,,,0.00,Rainwise IP-100,2013-07-21 15:13:00,
2013-07-21 08:18:00,51.5,52.0,30.07,SSW,202,7.0,7.0,100,0.00,,,0.00,Rainwise IP-100,2013-07-21 15:18:00,
2013-07-21 08:23:00,51.6,52.0,30.07,SSW,202,5.0,5.0,100,0.00,,,0.00,Rainwise IP-100,2013-07-21 15:23:00,
2013-07-21 08:28:00,51.6,52.0,30.07,SW,225,6.0,6.0,100,0.00,,,0.00,Rainwise IP-100,2013-07-21 15:28:00,
2013-07-21 08:33:00,51.7,52.0,30.07,WSW,247,8.0,8.0,100,0.00,,,0.00,Rainwise IP-100,2013-07-21 15:33:00,
2013-07-21 08:38:00,51.6,52.0,30.08,SSW,202,7.0,7.0,100,0.00,,,0.00,Rainwise IP-100,2013-07-21 15:38:00,
2013-07-21 08:43:00,51.7,52.0,30.08,SW,225,0.0,5.0,100,0.00,,,0.00,Rainwise IP-100,2013-07-21 15:43:00,
2013-07-21 08:48:00,51.9,52.0,30.07,SSE,157,7.0,7.0,100,0.00,,,0.00,Rainwise IP-100,2013-07-21 15:48:00,
2013-07-21 08:53:00,52.1,52.0,30.08,WNW,292,7.0,7.0,100,0.00,,,0.00,Rainwise IP-100,2013-07-21 15:53:00,
2013-07-21 08:58:00,52.2,52.0,30.08,SSW,202,8.0,8.0,100,0.00,,,0.00,Rainwise IP-100,2013-07-21 15:58:00,
2013-07-21 09:03:00,52.1,52.0,30.08,SW,225,0.0,7.0,100,0.00,,,0.00,Rainwise IP-100,2013-07-21 16:03:00,
2013-07-21 09:08:00,52.1,52.0,30.08,SSW,202,9.0,9.0,100,0.00,,,0.00,Rainwise IP-100,2013-07-21 16:08:00,
2013-07-21 09:13:00,52.2,52.0,30.08,SW,225,7.0,7.0,100,0.00,,,0.00,Rainwise IP-100,2013-07-21 16:13:00,
2013-07-21 09:18:00,52.3,52.0,30.08,SW,225,0.0,6.0,100,0.00,,,0.00,Rainwise IP-100,2013-07-21 16:18:00,
2013-07-21 09:23:00,52.4,52.0,30.08,SSW,202,4.0,4.0,100,0.00,,,0.00,Rainwise IP-100,2013-07-21 16:23:00,
2013-07-21 09:28:00,52.5,53.0,30.08,SSE,157,9.0,9.0,100,0.00,,,0.00,Rainwise IP-100,2013-07-21 16:28:00,
2013-07-21 09:33:00,52.5,53.0,30.07,WSW,247,0.0,1.0,100,0.00,,,0.00,Rainwise IP-100,2013-07-21 16:33:00,
2013-07-21 09:38:00,52.5,53.0,30.08,SSE,157,7.0,7.0,100,0.00,,,0.00,Rainwise IP-100,2013-07-21 16:38:00,
2013-07-21 09:43:00,52.7,53.0,30.08,SW,225,0.0,6.0,100,0.00,,,0.00,Rainwise IP-100,2013-07-21 16:43:00,
2013-07-21 09:48:00,52.8,53.0,30.07,WNW,292,6.0,0.0,100,0.00,,,0.00,Rainwise IP-100,2013-07-21 16:48:00,
2013-07-21 09:53:00,52.8,53.0,30.08,SW,225,7.0,7.0,100,0.00,,,0.00,Rainwise IP-100,2013-07-21 16:53:00,
2013-07-21 09:58:00,53.0,53.0,30.08,SSW,202,0.0,3.0,100,0.00,,,0.00,Rainwise IP-100,2013-07-21 16:58:00,
2013-07-21 10:03:00,53.3,53.0,30.08,SW,225,6.0,7.0,99,0.00,,,0.00,Rainwise IP-100,2013-07-21 17:03:00,
2013-07-21 10:08:00,53.3,53.0,30.08,WSW,247,0.0,1.0,99,0.00,,,0.00,Rainwise IP-100,2013-07-21 17:08:00,
2013-07-21 10:13:00,53.3,53.0,30.09,SSW,202,0.0,3.0,99,0.00,,,0.00,Rainwise IP-100,2013-07-21 17:13:00,
2013-07-21 10:18:00,53.4,53.0,30.08,SSW,202,0.0,4.0,98,0.00,,,0.00,Rainwise IP-100,2013-07-21 17:18:00,
2013-07-21 10:23:00,53.6,53.0,30.09,SSW,202,6.0,9.0,98,0.00,,,0.00,Rainwise IP-100,2013-07-21 17:23:00,
2013-07-21 10:28:00,53.7,53.0,30.09,WSW,247,7.0,7.0,98,0.00,,,0.00,Rainwise IP-100,2013-07-21 17:28:00,
2013-07-21 10:33:00,53.9,53.0,30.08,SW,225,2.0,9.0,98,0.00,,,0.00,Rainwise IP-100,2013-07-21 17:33:00,
2013-07-21 10:38:00,54.0,53.0,30.09,SSW,202,9.0,9.0,98,0.00,,,0.00,Rainwise IP-100,2013-07-21 17:38:00,
2013-07-21 10:43:00,54.1,53.0,30.08,SW,225,0.0,6.0,98,0.00,,,0.00,Rainwise IP-100,2013-07-21 17:43:00,
2013-07-21 10:48:00,54.2,53.0,30.08,SSW,202,5.0,6.0,98,0.00,,,0.00,Rainwise IP-100,2013-07-21 17:48:00,
2013-07-21 10:53:00,54.1,53.0,30.09,SW,225,0.0,7.0,98,0.00,,,0.00,Rainwise IP-100,2013-07-21 17:53:00,
2013-07-21 10:58:00,54.1,53.0,30.08,South,180,8.0,8.0,98,0.00,,,0.00,Rainwise IP-100,2013-07-21 17:58:00,
2013-07-21 11:03:00,54.2,53.0,30.09,WNW,292,1.0,8.0,98,0.00,,,0.00,Rainwise IP-100,2013-07-21 18:03:00,
2013-07-21 11:08:00,54.1,53.0,30.08,SSW,202,8.0,0.0,98,0.00,,,0.00,Rainwise IP-100,2013-07-21 18:08:00,
2013-07-21 11:13:00,53.9,53.0,30.09,SW,225,0.0,9.0,98,0.00,,,0.00,Rainwise IP-100,2013-07-21 18:13:00,
2013-07-21 11:18:00,53.8,53.0,30.09,SW,225,6.0,7.0,98,0.00,,,0.00,Rainwise IP-100,2013-07-21 18:18:00,
2013-07-21 11:23:00,54.0,53.0,30.09,SSW,202,4.0,4.0,98,0.00,,,0.00,Rainwise IP-100,2013-07-21 18:23:00,
2013-07-21 11:28:00,54.2,53.0,30.09,West,270,5.0,6.0,97,0.00,,,0.00,Rainwise IP-100,2013-07-21 18:28:00,
2013-07-21 11:33:00,54.4,54.0,30.09,WSW,247,6.0,8.0,97,0.00,,,0.00,Rainwise IP-100,2013-07-21 18:33:00,
2013-07-21 11:34:00,54.4,54.0,30.09,ENE,67,3.0,8.0,97,0.00,,,0.00,Rainwise IP-100,2013-07-21 18:34:00,
2013-07-21 11:39:00,54.5,54.0,30.09,WSW,247,0.0,9.0,97,0.00,,,0.00,Rainwise IP-100,2013-07-21 18:39:00,
2013-07-21 11:44:00,54.5,54.0,30.09,SSW,202,8.0,0.0,97,0.00,,,0.00,Rainwise IP-100,2013-07-21 18:44:00,
2013-07-21 11:49:00,54.4,54.0,30.08,SW,225,0.0,0.0,97,0.00,,,0.00,Rainwise IP-100,2013-07-21 18:49:00,
2013-07-21 11:54:00,54.4,54.0,30.09,SW,225,4.0,7.0,97,0.00,,,0.00,Rainwise IP-100,2013-07-21 18:54:00,
2013-07-21 11:59:00,54.6,54.0,30.09,SW,225,4.0,7.0,97,0.00,,,0.00,Rainwise IP-100,2013-07-21 18:59:00,
2013-07-21 12:04:00,54.7,54.0,30.08,NNE,22,3.0,9.0,97,0.00,,,0.00,Rainwise IP-100,2013-07-21 19:04:00,
2013-07-21 12:09:00,54.9,54.0,30.08,WSW,247,4.0,4.0,97,0.00,,,0.00,Rainwise IP-100,2013-07-21 19:09:00,
2013-07-21 12:14:00,54.8,54.0,30.08,NW,315,5.0,5.0,97,0.00,,,0.00,Rainwise IP-100,2013-07-21 19:14:00,
2013-07-21 12:19:00,54.8,53.0,30.09,SW,225,0.0,8.0,96,0.00,,,0.00,Rainwise IP-100,2013-07-21 19:19:00,
2013-07-21 12:24:00,55.0,54.0,30.09,SSE,157,3.0,7.0,96,0.00,,,0.00,Rainwise IP-100,2013-07-21 19:24:00,
2013-07-21 12:29:00,55.2,54.0,30.09,SSE,157,2.0,4.0,96,0.00,,,0.00,Rainwise IP-100,2013-07-21 19:29:00,
2013-07-21 12:34:00,55.2,54.0,30.09,SW,225,7.0,7.0,96,0.00,,,0.00,Rainwise IP-100,2013-07-21 19:34:00,
2013-07-21 12:39:00,55.5,54.0,30.08,SW,225,4.0,6.0,95,0.00,,,0.00,Rainwise IP-100,2013-07-21 19:39:00,
2013-07-21 12:44:00,55.8,54.0,30.08,SSW,202,6.0,7.0,94,0.00,,,0.00,Rainwise IP-100,2013-07-21 19:44:00,
2013-07-21 12:49:00,55.8,54.0,30.09,SSW,202,5.0,6.0,94,0.00,,,0.00,Rainwise IP-100,2013-07-21 19:49:00,
2013-07-21 12:54:00,55.9,54.0,30.09,SSW,202,3.0,3.0,94,0.00,,,0.00,Rainwise IP-100,2013-07-21 19:54:00,
2013-07-21 12:59:00,56.0,54.0,30.08,SSW,202,9.0,9.0,94,0.00,,,0.00,Rainwise IP-100,2013-07-21 19:59:00,
2013-07-21 13:04:00,55.6,54.0,30.08,SSW,202,0.0,4.0,94,0.00,,,0.00,Rainwise IP-100,2013-07-21 20:04:00,
2013-07-21 13:09:00,55.7,54.0,30.08,SW,225,0.0,4.0,94,0.00,,,0.00,Rainwise IP-100,2013-07-21 20:09:00,
2013-07-21 13:14:00,55.8,54.0,30.08,WSW,247,6.0,7.0,93,0.00,,,0.00,Rainwise IP-100,2013-07-21 20:14:00,
2013-07-21 13:19:00,55.6,54.0,30.08,South,180,8.0,0.0,93,0.00,,,0.00,Rainwise IP-100,2013-07-21 20:19:00,
2013-07-21 13:24:00,55.6,54.0,30.08,SSW,202,6.0,7.0,94,0.00,,,0.00,Rainwise IP-100,2013-07-21 20:24:00,
2013-07-21 13:29:00,56.1,54.0,30.08,WSW,247,7.0,7.0,93,0.00,,,0.00,Rainwise IP-100,2013-07-21 20:29:00,
2013-07-21 13:34:00,56.4,54.0,30.08,SW,225,9.0,9.0,93,0.00,,,0.00,Rainwise IP-100,2013-07-21 20:34:00,
2013-07-21 13:39:00,56.4,54.0,30.08,South,180,4.0,4.0,92,0.00,,,0.00,Rainwise IP-100,2013-07-21 20:39:00,
2013-07-21 13:44:00,56.4,54.0,30.08,SSW,202,8.0,8.0,92,0.00,,,0.00,Rainwise IP-100,2013-07-21 20:44:00,
2013-07-21 13:49:00,56.5,54.0,30.08,West,270,4.0,4.0,92,0.00,,,0.00,Rainwise IP-100,2013-07-21 20:49:00,
2013-07-21 13:54:00,56.7,54.0,30.08,SE,135,4.0,9.0,91,0.00,,,0.00,Rainwise IP-100,2013-07-21 20:54:00,
2013-07-21 13:59:00,56.8,54.0,30.08,SW,225,5.0,5.0,91,0.00,,,0.00,Rainwise IP-100,2013-07-21 20:59:00,
2013-07-21 14:04:00,56.7,54.0,30.08,SW,225,3.0,6.0,91,0.00,,,0.00,Rainwise IP-100,2013-07-21 21:04:00,
2013-07-21 14:09:00,56.5,54.0,30.08,WSW,247,3.0,4.0,91,0.00,,,0.00,Rainwise IP-100,2013-07-21 21:09:00,
2013-07-21 14:14:00,56.4,54.0,30.08,WSW,247,0.0,8.0,92,0.00,,,0.00,Rainwise IP-100,2013-07-21 21:14:00,
2013-07-21 14:19:00,56.4,54.0,30.08,SSW,202,9.0,9.0,92,0.00,,,0.00,Rainwise IP-100,2013-07-21 21:19:00,
2013-07-21 14:24:00,56.5,54.0,30.08,SSW,202,0.0,4.0,92,0.00,,,0.00,Rainwise IP-100,2013-07-21 21:24:00,
2013-07-21 14:29:00,56.6,54.0,30.08,SSW,202,6.0,6.0,91,0.00,,,0.00,Rainwise IP-100,2013-07-21 21:29:00,
2013-07-21 14:34:00,56.8,54.0,30.08,ENE,67,4.0,4.0,91,0.00,,,0.00,Rainwise IP-100,2013-07-21 21:34:00,
2013-07-21 14:39:00,57.1,54.0,30.08,SSE,157,3.0,4.0,91,0.00,,,0.00,Rainwise IP-100,2013-07-21 21:39:00,
2013-07-21 14:44:00,57.1,54.0,30.08,SW,225,7.0,7.0,90,0.00,,,0.00,Rainwise IP-100,2013-07-21 21:44:00,
2013-07-21 14:49:00,57.0,54.0,30.08,WSW,247,6.0,6.0,90,0.00,,,0.00,Rainwise IP-100,2013-07-21 21:49:00,
2013-07-21 14:54:00,57.1,54.0,30.08,ESE,112,1.0,1.0,90,0.00,,,0.00,Rainwise IP-100,2013-07-21 21:54:00,
2013-07-21 14:59:00,57.5,54.0,30.07,SSW,202,4.0,4.0,89,0.00,,,0.00,Rainwise IP-100,2013-07-21 21:59:00,
2013-07-21 15:04:00,57.8,54.0,30.07,WNW,292,4.0,4.0,89,0.00,,,0.00,Rainwise IP-100,2013-07-21 22:04:00,
2013-07-21 15:09:00,57.7,54.0,30.07,West,270,2.0,7.0,88,0.00,,,0.00,Rainwise IP-100,2013-07-21 22:09:00,
2013-07-21 15:14:00,57.6,54.0,30.07,WSW,247,7.0,0.0,88,0.00,,,0.00,Rainwise IP-100,2013-07-21 22:14:00,
2013-07-21 15:19:00,57.6,54.0,30.07,WSW,247,8.0,8.0,88,0.00,,,0.00,Rainwise IP-100,2013-07-21 22:19:00,
2013-07-21 15:24:00,57.6,54.0,30.07,SW,225,0.0,2.0,88,0.00,,,0.00,Rainwise IP-100,2013-07-21 22:24:00,
2013-07-21 15:29:00,57.0,53.0,30.06,SSE,157,6.0,0.0,88,0.00,,,0.00,Rainwise IP-100,2013-07-21 22:29:00,
2013-07-21 15:34:00,56.9,54.0,30.07,WSW,247,2.0,5.0,89,0.00,,,0.00,Rainwise IP-100,2013-07-21 22:34:00,
2013-07-21 15:39:00,57.2,54.0,30.07,South,180,5.0,5.0,89,0.00,,,0.00,Rainwise IP-100,2013-07-21 22:39:00,
2013-07-21 15:44:00,56.7,53.0,30.07,SSW,202,0.0,2.0,89,0.00,,,0.00,Rainwise IP-100,2013-07-21 22:44:00,
2013-07-21 15:49:00,56.2,53.0,30.07,SSW,202,9.0,9.0,90,0.00,,,0.00,Rainwise IP-100,2013-07-21 22:49:00,
2013-07-21 15:54:00,56.1,53.0,30.07,WSW,247,8.0,8.0,91,0.00,,,0.00,Rainwise IP-100,2013-07-21 22:54:00,
2013-07-21 15:59:00,55.9,53.0,30.06,WSW,247,6.0,7.0,91,0.00,,,0.00,Rainwise IP-100,2013-07-21 22:59:00,
2013-07-21 16:04:00,55.9,53.0,30.06,East,90,5.0,7.0,91,0.00,,,0.00,Rainwise IP-100,2013-07-21 23:04:00,
2013-07-21 16:09:00,56.2,53.0,30.06,SSW,202,4.0,7.0,91,0.00,,,0.00,Rainwise IP-100,2013-07-21 23:09:00,
2013-07-21 16:14:00,56.4,54.0,30.06,West,270,3.0,5.0,91,0.00,,,0.00,Rainwise IP-100,2013-07-21 23:14:00,
2013-07-21 16:19:00,56.5,53.0,30.06,NW,315,3.0,7.0,90,0.00,,,0.00,Rainwise IP-100,2013-07-21 23:19:00,
2013-07-21 16:24:00,56.3,53.0,30.06,WSW,247,2.0,9.0,90,0.00,,,0.00,Rainwise IP-100,2013-07-21 23:24:00,
2013-07-21 16:29:00,55.8,53.0,30.06,NW,315,7.0,7.0,91,0.00,,,0.00,Rainwise IP-100,2013-07-21 23:29:00,
2013-07-21 16:34:00,55.6,53.0,30.06,WNW,292,6.0,6.0,92,0.00,,,0.00,Rainwise IP-100,2013-07-21 23:34:00,
2013-07-21 16:39:00,55.8,53.0,30.05,SW,225,0.0,5.0,92,0.00,,,0.00,Rainwise IP-100,2013-07-21 23:39:00,
2013-07-21 16:44:00,56.0,53.0,30.06,WSW,247,4.0,6.0,92,0.00,,,0.00,Rainwise IP-100,2013-07-21 23:44:00,
2013-07-21 16:49:00,55.9,53.0,30.06,South,180,7.0,7.0,92,0.00,,,0.00,Rainwise IP-100,2013-07-21 23:49:00,
2013-07-21 16:54:00,55.9,53.0,30.06,SW,225,2.0,6.0,91,0.00,,,0.00,Rainwise IP-100,2013-07-21 23:54:00,
2013-07-21 16:59:00,56.1,53.0,30.06,SW,225,0.0,9.0,91,0.00,,,0.00,Rainwise IP-100,2013-07-21 23:59:00,
2013-07-21 17:04:00,55.9,53.0,30.05,SSW,202,4.0,6.0,91,0.00,,,0.00,Rainwise IP-100,2013-07-22 00:04:00,
2013-07-21 17:09:00,55.6,53.0,30.05,SSW,202,0.0,5.0,92,0.00,,,0.00,Rainwise IP-100,2013-07-22 00:09:00,
2013-07-21 17:14:00,55.4,53.0,30.05,SW,225,9.0,9.0,92,0.00,,,0.00,Rainwise IP-100,2013-07-22 00:14:00,
2013-07-21 17:19:00,55.2,53.0,30.05,WSW,247,8.0,9.0,92,0.00,,,0.00,Rainwise IP-100,2013-07-22 00:19:00,
2013-07-21 17:24:00,54.8,53.0,30.05,WSW,247,5.0,8.0,93,0.00,,,0.00,Rainwise IP-100,2013-07-22 00:24:00,
2013-07-21 17:29:00,54.6,53.0,30.05,WSW,247,7.0,8.0,94,0.00,,,0.00,Rainwise IP-100,2013-07-22 00:29:00,
2013-07-21 17:34:00,54.6,53.0,30.05,WSW,247,0.0,0.0,94,0.00,,,0.00,Rainwise IP-100,2013-07-22 00:34:00,
2013-07-21 17:39:00,54.5,53.0,30.05,SW,225,0.0,2.0,94,0.00,,,0.00,Rainwise IP-100,2013-07-22 00:39:00,
2013-07-21 17:44:00,54.5,53.0,30.06,SW,225,0.0,8.0,95,0.00,,,0.00,Rainwise IP-100,2013-07-22 00:44:00,
2013-07-21 17:49:00,54.6,53.0,30.05,SSW,202,0.0,8.0,95,0.00,,,0.00,Rainwise IP-100,2013-07-22 00:49:00,
2013-07-21 17:54:00,54.3,53.0,30.05,WNW,292,4.0,5.0,95,0.00,,,0.00,Rainwise IP-100,2013-07-22 00:54:00,
2013-07-21 17:59:00,53.9,53.0,30.05,SSE,157,2.0,2.0,95,0.00,,,0.00,Rainwise IP-100,2013-07-22 00:59:00,
2013-07-21 18:04:00,54.0,53.0,30.06,SSW,202,4.0,4.0,96,0.00,,,0.00,Rainwise IP-100,2013-07-22 01:04:00,
2013-07-21 18:09:00,54.0,53.0,30.06,SSW,202,0.0,8.0,96,0.00,,,0.00,Rainwise IP-100,2013-07-22 01:09:00,
2013-07-21 18:14:00,53.8,52.0,30.05,SW,225,0.0,0.0,96,0.00,,,0.00,Rainwise IP-100,2013-07-22 01:14:00,
2013-07-21 18:19:00,53.7,52.0,30.06,South,180,4.0,0.0,96,0.00,,,0.00,Rainwise IP-100,2013-07-22 01:19:00,
2013-07-21 18:24:00,53.9,53.0,30.06,SSW,202,2.0,8.0,96,0.00,,,0.00,Rainwise IP-100,2013-07-22 01:24:00,
2013-07-21 18:29:00,53.9,53.0,30.06,West,270,4.0,6.0,96,0.00,,,0.00,Rainwise IP-100,2013-07-22 01:29:00,
2013-07-21 18:34:00,54.0,53.0,30.06,WSW,247,8.0,8.0,96,0.00,,,0.00,Rainwise IP-100,2013-07-22 01:34:00,
2013-07-21 18:39:00,54.0,53.0,30.06,SW,225,0.0,7.0,96,0.00,,,0.00,Rainwise IP-100,2013-07-22 01:39:00,
2013-07-21 18:44:00,53.9,53.0,30.07,WNW,292,4.0,9.0,96,0.00,,,0.00,Rainwise IP-100,2013-07-22 01:44:00,
2013-07-21 18:49:00,53.8,53.0,30.07,WSW,247,0.0,7.0,97,0.00,,,0.00,Rainwise IP-100,2013-07-22 01:49:00,
2013-07-21 18:54:00,53.6,53.0,30.07,WSW,247,6.0,8.0,97,0.00,,,0.00,Rainwise IP-100,2013-07-22 01:54:00,
2013-07-21 18:59:00,53.6,53.0,30.06,WSW,247,0.0,7.0,97,0.00,,,0.00,Rainwise IP-100,2013-07-22 01:59:00,
2013-07-21 19:04:00,53.5,53.0,30.06,SSW,202,8.0,8.0,97,0.00,,,0.00,Rainwise IP-100,2013-07-22 02:04:00,
2013-07-21 19:09:00,53.6,53.0,30.07,SW,225,9.0,9.0,98,0.00,,,0.00,Rainwise IP-100,2013-07-22 02:09:00,
2013-07-21 19:14:00,53.6,53.0,30.07,SW,225,4.0,9.0,98,0.00,,,0.00,Rainwise IP-100,2013-07-22 02:14:00,
2013-07-21 19:19:00,53.6,53.0,30.07,SSW,202,6.0,6.0,98,0.00,,,0.00,Rainwise IP-100,2013-07-22 02:19:00,
2013-07-21 19:24:00,53.5,53.0,30.07,SW,225,0.0,4.0,98,0.00,,,0.00,Rainwise IP-100,2013-07-22 02:24:00,
2013-07-21 19:29:00,53.4,53.0,30.07,NW,315,8.0,8.0,98,0.00,,,0.00,Rainwise IP-100,2013-07-22 02:29:00,
2013-07-21 19:34:00,53.4,53.0,30.07,South,180,0.0,4.0,98,0.00,,,0.00,Rainwise IP-100,2013-07-22 02:34:00,
2013-07-21 19:39:00,53.4,53.0,30.08,SW,225,9.0,9.0,98,0.00,,,0.00,Rainwise IP-100,2013-07-22 02:39:00,
2013-07-21 19:44:00,53.3,52.0,30.08,West,270,3.0,8.0,98,0.00,,,0.00,Rainwise IP-100,2013-07-22 02:44:00,
2013-07-21 19:49:00,53.3,52.0,30.07,SSW,202,4.0,7.0,98,0.00,,,0.00,Rainwise IP-100,2013-07-22 02:49:00,
2013-07-21 19:54:00,53.3,53.0,30.08,WSW,247,5.0,6.0,99,0.00,,,0.00,Rainwise IP-100,2013-07-22 02:54:00,
2013-07-21 19:59:00,53.2,53.0,30.08,SSW,202,3.0,3.0,99,0.00,,,0.00,Rainwise IP-100,2013-07-22 02:59:00,
2013-07-21 20:04:00,53.2,53.0,30.08,SW,225,6.0,7.0,99,0.00,,,0.00,Rainwise IP-100,2013-07-22 03:04:00,
2013-07-21 20:09:00,53.2,53.0,30.08,SSW,202,4.0,7.0,99,0.00,,,0.00,Rainwise IP-100,2013-07-22 03:09:00,
2013-07-21 20:14:00,53.2,53.0,30.08,SSW,202,8.0,8.0,99,0.00,,,0.00,Rainwise IP-100,2013-07-22 03:14:00,
2013-07-21 20:19:00,53.2,53.0,30.08,SW,225,0.0,7.0,99,0.00,,,0.00,Rainwise IP-100,2013-07-22 03:19:00,
2013-07-21 20:24:00,53.2,53.0,30.08,WSW,247,0.0,9.0,99,0.00,,,0.00,Rainwise IP-100,2013-07-22 03:24:00,
2013-07-21 20:29:00,53.1,53.0,30.08,SW,225,0.0,6.0,99,0.00,,,0.00,Rainwise IP-100,2013-07-22 03:29:00,
2013-07-21 20:34:00,53.1,53.0,30.08,WNW,292,4.0,5.0,99,0.00,,,0.00,Rainwise IP-100,2013-07-22 03:34:00,
2013-07-21 20:39:00,53.1,53.0,30.08,SSE,157,0.0,6.0,99,0.00,,,0.00,Rainwise IP-100,2013-07-22 03:39:00,
2013-07-21 20:44:00,53.1,53.0,30.08,SSW,202,4.0,4.0,100,0.00,,,0.00,Rainwise IP-100,2013-07-22 03:44:00,
2013-07-21 20:49:00,53.0,53.0,30.08,SSE,157,4.0,5.0,100,0.00,,,0.00,Rainwise IP-100,2013-07-22 03:49:00,
2013-07-21 20:54:00,52.9,53.0,30.09,WSW,247,2.0,7.0,100,0.00,,,0.00,Rainwise IP-100,2013-07-22 03:54:00,
2013-07-21 20:59:00,52.8,53.0,30.09,WSW,247,6.0,6.0,100,0.00,,,0.00,Rainwise IP-100,2013-07-22 03:59:00,
2013-07-21 21:01:00,52.8,53.0,30.09,WSW,247,7.0,7.0,100,0.00,,,0.00,Rainwise IP-100,2013-07-22 04:01:00,
2013-07-21 21:06:00,52.7,53.0,30.09,SSW,202,3.0,4.0,100,0.00,,,0.00,Rainwise IP-100,2013-07-22 04:06:00,
2013-07-21 21:11:00,52.6,53.0,30.10,South,180,2.0,5.0,100,0.00,,,0.00,Rainwise IP-100,2013-07-22 04:11:00,
2013-07-21 21:16:00,52.7,53.0,30.09,WSW,247,8.0,8.0,100,0.00,,,0.00,Rainwise IP-100,2013-07-22 04:16:00,
2013-07-21 21:21:00,52.7,53.0,30.10,WSW,247,3.0,5.0,100,0.00,,,0.00,Rainwise IP-100,2013-07-22 04:21:00,
2013-07-21 21:26:00,52.7,53.0,30.10,SSW,202,9.0,9.0,100,0.00,,,0.00,Rainwise IP-100,2013-07-22 04:26:00,
2013-07-21 21:31:00,52.7,53.0,30.10,SW,225,7.0,8.0,100,0.00,,,0.00,Rainwise IP-100,2013-07-22 04:31:00,
2013-07-21 21:36:00,52.6,53.0,30.10,SW,225,9.0,9.0,100,0.00,,,0.00,Rainwise IP-100,2013-07-22 04:36:00,
2013-07-21 21:41:00,52.7,53.0,30.11,West,270,4.0,7.0,100,0.00,,,0.00,Rainwise IP-100,2013-07-22 04:41:00,
2013-07-21 21:46:00,52.7,53.0,30.10,SSW,202,4.0,4.0,100,0.00,,,0.00,Rainwise IP-100,2013-07-22 04:46:00,
2013-07-21 21:51:00,52.7,53.0,30.11,West,270,0.0,6.0,100,0.00,,,0.00,Rainwise IP-100,2013-07-22 04:51:00,
2013-07-21 21:56:00,52.7,53.0,30.11,WNW,292,2.0,5.0,100,0.00,,,0.00,Rainwise IP-100,2013-07-22 04:56:00,
2013-07-21 22:01:00,52.7,53.0,30.11,SSW,202,4.0,5.0,100,0.00,,,0.00,Rainwise IP-100,2013-07-22 05:01:00,
2013-07-21 22:06:00,52.7,53.0,30.11,SW,225,0.0,4.0,100,0.00,,,0.00,Rainwise IP-100,2013-07-22 05:06:00,
2013-07-21 22:11:00,52.7,53.0,30.12,WSW,247,6.0,0.0,100,0.00,,,0.00,Rainwise IP-100,2013-07-22 05:11:00,
2013-07-21 22:16:00,52.6,53.0,30.12,SW,225,9.0,9.0,100,0.00,,,0.00,Rainwise IP-100,2013-07-22 05:16:00,
2013-07-21 22:21:00,52.6,53.0,30.12,SW,225,0.0,8.0,100,0.00,,,0.00,Rainwise IP-100,2013-07-22 05:21:00,
2013-07-21 22:26:00,52.6,53.0,30.12,SW,225,2.0,9.0,100,0.00,,,0.00,Rainwise IP-100,2013-07-22 05:26:00,
2013-07-21 22:31:00,52.6,53.0,30.12,SW,225,0.0,3.0,100,0.00,,,0.00,Rainwise IP-100,2013-07-22 05:31:00,
2013-07-21 22:36:00,52.7,53.0,30.13,West,270,3.0,6.0,100,0.00,,,0.00,Rainwise IP-100,2013-07-22 05:36:00,
2013-07-21 22:41:00,52.6,53.0,30.12,SW,225,4.0,5.0,100,0.00,,,0.00,Rainwise IP-100,2013-07-22 05:41:00,
2013-07-21 22:46:00,52.5,53.0,30.12,SW,225,9.0,9.0,100,0.00,,,0.00,Rainwise IP-100,2013-07-22 05:46:00,
2013-07-21 22:51:00,52.6,53.0,30.13,SSW,202,5.0,5.0,100,0.00,,,0.00,Rainwise IP-100,2013-07-22 05:51:00,
2013-07-21 22:56:00,52.6,53.0,30.13,WNW,292,6.0,6.0,100,0.00,,,0.00,Rainwise IP-100,2013-07-22 05:56:00,
2013-07-21 23:01:00,52.6,53.0,30.13,West,270,6.0,6.0,100,0.00,,,0.00,Rainwise IP-100,2013-07-22 06:01:00,
2013-07-21 23:06:00,52.6,53.0,30.13,West,270,6.0,6.0,100,0.00,,,0.00,Rainwise IP-100,2013-07-22 06:06:00,
2013-07-21 23:11:00,52.6,53.0,30.13,WSW,247,6.0,6.0,100,0.00,,,0.00,Rainwise IP-100,2013-07-22 06:11:00,
2013-07-21 23:16:00,52.5,53.0,30.13,WSW,247,3.0,3.0,100,0.00,,,0.00,Rainwise IP-100,2013-07-22 06:16:00,
2013-07-21 23:21:00,52.5,53.0,30.13,SSW,202,4.0,4.0,100,0.00,,,0.00,Rainwise IP-100,2013-07-22 06:21:00,
2013-07-21 23:26:00,52.5,53.0,30.13,SSW,202,9.0,9.0,100,0.00,,,0.00,Rainwise IP-100,2013-07-22 06:26:00,
2013-07-21 23:31:00,52.5,53.0,30.13,West,270,1.0,3.0,100,0.00,,,0.00,Rainwise IP-100,2013-07-22 06:31:00,
2013-07-21 23:36:00,52.5,53.0,30.13,SW,225,2.0,5.0,100,0.00,,,0.00,Rainwise IP-100,2013-07-22 06:36:00,
2013-07-21 23:41:00,52.6,53.0,30.13,SW,225,0.0,3.0,100,0.00,,,0.00,Rainwise IP-100,2013-07-22 06:41:00,
2013-07-21 23:46:00,52.7,53.0,30.13,WNW,292,8.0,8.0,100,0.00,,,0.00,Rainwise IP-100,2013-07-22 06:46:00,
2013-07-21 23:51:00,52.7,53.0,30.13,SSW,202,4.0,4.0,100,0.00,,,0.00,Rainwise IP-100,2013-07-22 06:51:00,
2013-07-21 23:56:00,52.7,53.0,30.13,WNW,292,6.0,6.0,100,0.00,,,0.00,Rainwise IP-100,2013-07-22 06:56:00,